User: anonymous   Login
Location: Unspecified
(0.0000°N, 0.0000°E)
Time: 03:08:58
(UTC+02:00)
Language:

SJ-6B - Orbit

View from above orbital plane
View from above orbital plane
View from above satellite
View from above satellite

Ground track
Ground track

The orbit data is extracted from the following two-line orbital elements,

1 28415U 04035C   15090.47392914  .00004075  00000-0  28899-3 0  9991
2 28415 097.7978 102.1409 0054158 343.0803 016.8614 15.04171259576908
Epoch (UTC): 31 March 2015 11:22:27
Eccentricity: 0.0054158
inclination: 97.7978°
perigee height: 516 km
apogee height: 591 km
right ascension of ascending node: 102.1409°
argument of perigee: 343.0803°
revolutions per day: 15.04171259
mean anomaly at epoch: 16.8614°
orbit number at epoch: 57690

The dashed part of the orbit path shows where the satellite is in the earth's shadow,  

DLR